K3CHZ Weather Reports


Display with metric or nautical units.
time (UTC)temp
F
wind
direction
speed
MPH
gust
MPH
rain 1hr
in
rain 24hr
in
rain mn
in
humidity
%
barometer
mb
20260905185638 79 320 0.0 1.0 0.00 0.00 0.00 71 1011.6
20260905185138 79 320 0.0 1.0 0.00 0.00 0.00 69 1011.7
20260905184639 79 274 0.0 1.0 0.00 0.00 0.00 70 1011.8
20260905184140 79 286 0.0 1.0 0.00 0.00 0.00 70 1011.9
20260905183638 78 286 0.0 0.0 0.00 0.00 0.00 70 1011.9
20260905183138 78 286 0.0 1.0 0.00 0.00 0.00 70 1012.0
20260905182639 78 286 0.0 1.0 0.00 0.00 0.00 72 1012.0
20260905182137 77 286 0.0 0.0 0.00 0.00 0.00 73 1011.9
20260905181638 77 286 0.0 0.0 0.00 0.00 0.00 73 1012.0
20260905181138 77 286 0.0 0.0 0.00 0.00 0.00 74 1012.0
20260905180638 77 286 0.0 0.0 0.00 0.00 0.00 75 1012.1
20260905180138 77 286 0.0 0.0 0.00 0.00 0.00 78 1012.1
20260905175637 77 286 0.0 0.0 0.00 0.00 0.00 72 1012.2
20260905175138 77 286 0.0 0.0 0.00 0.00 0.00 76 1012.3
20260905174638 77 286 0.0 0.0 0.00 0.00 0.00 74 1012.2
20260905174138 78 269 0.0 0.0 0.00 0.00 0.00 76 1012.3
20260905173637 78 269 0.0 0.0 0.00 0.00 0.00 76 1012.3
20260905173138 78 269 0.0 0.0 0.00 0.00 0.00 77 1012.4
20260905172638 78 269 0.0 0.0 0.00 0.00 0.00 76 1012.4
20260905172139 77 269 0.0 0.0 0.00 0.00 0.00 77 1012.4
20260905171639 77 269 0.0 1.0 0.00 0.00 0.00 78 1012.5
20260905171139 76 269 0.0 1.0 0.00 0.00 0.00 77 1012.6
20260905170638 76 278 0.0 0.0 0.00 0.00 0.00 78 1012.6
20260905170138 76 278 0.0 0.0 0.00 0.00 0.00 77 1012.5
20260905165638 77 278 0.0 0.0 0.00 0.00 0.00 76 1012.5
20260905165139 77 278 0.0 1.0 0.00 0.00 0.00 77 1012.5
20260905164638 77 278 0.0 1.0 0.00 0.00 0.00 77 1012.6
20260905164139 77 278 0.0 1.0 0.00 0.00 0.00 77 1012.7
20260905163638 77 278 0.0 1.0 0.00 0.00 0.00 75 1012.7
20260905163138 77 278 0.0 1.0 0.00 0.00 0.00 78 1012.6
20260905162640 77 278 0.0 0.0 0.00 0.00 0.00 77 1012.7
20260905162141 77 278 0.0 0.0 0.00 0.00 0.00 77 1012.8
20260905161643 77 278 0.0 0.0 0.00 0.00 0.00 78 1012.8
20260905161141 77 278 0.0 0.0 0.00 0.00 0.00 77 1012.8
20260905160643 77 278 0.0 1.0 0.00 0.00 0.00 77 1012.9
20260905160142 77 278 0.0 1.0 0.00 0.00 0.00 78 1012.9
20260905155641 77 270 0.0 1.0 0.00 0.00 0.00 79 1013.0
20260905155140 77 270 0.0 0.0 0.00 0.00 0.00 81 1013.0
20260905154642 77 270 0.0 0.0 0.00 0.00 0.00 81 1013.1
20260905154141 77 270 0.0 0.0 0.00 0.00 0.00 80 1013.2
20260905153641 77 270 0.0 0.0 0.00 0.00 0.00 79 1013.3
20260905153141 77 270 0.0 0.0 0.00 0.00 0.00 80 1013.4
20260905152638 77 270 0.0 0.0 0.00 0.00 0.00 77 1013.4
20260905152138 77 270 0.0 0.0 0.00 0.00 0.00 78 1013.4
20260905151638 77 270 0.0 0.0 0.00 0.00 0.00 81 1013.4
20260905151138 77 270 0.0 0.0 0.00 0.00 0.00 81 1013.3
20260905150638 76 270 0.0 0.0 0.00 0.00 0.00 80 1013.3
20260905150139 76 270 0.0 0.0 0.00 0.00 0.00 78 1013.3
20260905145639 76 273 0.0 0.0 0.00 0.00 0.00 80 1013.2
20260905145138 77 275 0.0 0.0 0.00 0.00 0.00 80 1013.2
20260905144638 77 275 0.0 0.0 0.00 0.00 0.00 80 1013.2
20260905144138 77 275 0.0 0.0 0.00 0.00 0.00 78 1013.2
20260905143639 77 275 0.0 0.0 0.00 0.00 0.00 81 1013.0
20260905143138 77 275 0.0 0.0 0.00 0.00 0.00 81 1012.9
20260905142639 76 275 0.0 0.0 0.00 0.00 0.00 83 1012.9
20260905142138 76 275 0.0 0.0 0.00 0.00 0.00 81 1012.8
20260905141639 76 275 0.0 0.0 0.00 0.00 0.00 81 1012.7
20260905141138 76 275 0.0 0.0 0.00 0.00 0.00 81 1012.6
20260905140640 76 275 0.0 0.0 0.00 0.00 0.00 80 1012.6
20260905140138 76 275 0.0 0.0 0.00 0.00 0.00 79 1012.5
20260905135640 75 275 0.0 0.0 0.00 0.00 0.00 85 1012.5
20260905135139 75 275 0.0 0.0 0.00 0.00 0.00 85 1012.7
20260905134640 75 275 0.0 0.0 0.00 0.00 0.00 85 1012.7
20260905134138 74 275 0.0 0.0 0.00 0.00 0.00 86 1012.7
20260905133639 74 275 0.0 0.0 0.00 0.00 0.00 85 1012.8
20260905133139 74 275 0.0 0.0 0.00 0.00 0.00 86 1012.8
20260905132639 74 275 0.0 0.0 0.00 0.00 0.00 86 1012.8
20260905132141 74 275 0.0 0.0 0.00 0.00 0.00 85 1012.8
20260905131642 74 275 0.0 0.0 0.00 0.00 0.00 85 1012.8
20260905131142 73 275 0.0 0.0 0.00 0.00 0.00 87 1012.9
20260905130641 73 275 0.0 0.0 0.00 0.00 0.00 86 1012.7
20260905130141 73 275 0.0 2.0 0.00 0.00 0.00 87 1012.5
20260905125641 73 274 0.0 3.0 0.00 0.00 0.00 89 1012.4
20260905125142 72 5 0.0 3.0 0.00 0.00 0.00 90 1012.3
20260905124641 72 279 1.0 2.0 0.00 0.00 0.00 90 1012.3
20260905124141 72 276 0.0 2.0 0.00 0.00 0.00 91 1012.1
20260905123641 69 276 0.0 0.0 0.00 0.00 0.00 94 1012.2
20260905123141 69 276 0.0 0.0 0.00 0.00 0.00 94 1012.2
20260905122638 69 276 0.0 0.0 0.00 0.00 0.00 94 1012.1
20260905122138 69 276 0.0 0.0 0.00 0.00 0.00 94 1012.2
20260905121638 69 276 0.0 1.0 0.00 0.00 0.00 94 1012.3
20260905121138 69 276 0.0 1.0 0.00 0.00 0.00 94 1012.3
20260905120638 69 276 0.0 0.0 0.00 0.00 0.00 94 1012.4
20260905120137 69 276 0.0 0.0 0.00 0.00 0.00 94 1012.3
20260905115639 69 276 0.0 0.0 0.00 0.00 0.00 94 1012.3
20260905115138 69 276 0.0 0.0 0.00 0.00 0.00 94 1012.2
20260905114639 69 276 0.0 0.0 0.00 0.00 0.00 94 1012.2
20260905114138 69 276 0.0 0.0 0.00 0.00 0.00 94 1012.2
20260905113638 69 276 0.0 0.0 0.00 0.00 0.00 94 1012.1
20260905113138 69 276 0.0 0.0 0.00 0.00 0.00 94 1012.1
20260905112639 69 276 0.0 0.0 0.00 0.00 0.00 94 1012.1
20260905112141 69 276 0.0 0.0 0.00 0.00 0.00 94 1012.0
20260905111641 69 276 0.0 0.0 0.00 0.00 0.00 94 1012.0
20260905111142 69 276 0.0 0.0 0.00 0.00 0.00 94 1011.8
20260905110641 69 276 0.0 0.0 0.00 0.00 0.00 94 1011.8
20260905110145 69 276 0.0 0.0 0.00 0.00 0.00 94 1011.5
20260905105641 69 276 0.0 0.0 0.00 0.00 0.00 94 1011.5
20260905105143 69 276 0.0 0.0 0.00 0.00 0.00 94 1011.5
20260905104641 69 276 0.0 0.0 0.00 0.00 0.00 94 1011.4
20260905104145 69 276 0.0 0.0 0.00 0.00 0.00 94 1011.5
20260905103643 69 276 0.0 0.0 0.00 0.00 0.00 94 1011.3
20260905103141 69 276 0.0 0.0 0.00 0.00 0.00 94 1011.2
20260905102638 69 276 0.0 0.0 0.00 0.00 0.00 94 1011.3
20260905102138 69 276 0.0 0.0 0.00 0.00 0.00 94 1011.3
20260905101639 69 276 0.0 0.0 0.00 0.00 0.00 94 1011.2
20260905101138 69 276 0.0 0.0 0.00 0.00 0.00 94 1011.2
20260905100638 69 276 0.0 0.0 0.00 0.00 0.00 94 1011.1
20260905100140 69 276 0.0 0.0 0.00 0.00 0.00 94 1011.1
20260905095638 69 276 0.0 0.0 0.00 0.00 0.00 94 1011.1
20260905095140 69 276 0.0 0.0 0.00 0.00 0.00 94 1011.1
20260905094638 69 276 0.0 0.0 0.00 0.00 0.00 94 1011.1
20260905094138 69 276 0.0 0.0 0.00 0.00 0.00 94 1011.2
20260905093639 69 276 0.0 0.0 0.00 0.00 0.00 94 1011.2
20260905093138 69 276 0.0 0.0 0.00 0.00 0.00 94 1011.3
20260905092640 69 276 0.0 0.0 0.00 0.00 0.00 93 1011.3
20260905092143 69 276 0.0 0.0 0.00 0.00 0.00 93 1011.3
20260905091642 70 276 0.0 0.0 0.00 0.00 0.00 93 1011.2
20260905091141 70 276 0.0 0.0 0.00 0.00 0.00 93 1011.1
20260905090643 70 276 0.0 0.0 0.00 0.00 0.00 93 1011.2
20260905090142 70 276 0.0 0.0 0.00 0.00 0.00 93 1011.1
20260905085644 70 276 0.0 0.0 0.00 0.00 0.00 94 1011.1
20260905085142 70 276 0.0 0.0 0.00 0.00 0.00 93 1011.1
20260905084642 70 276 0.0 0.0 0.00 0.00 0.00 93 1011.1
20260905084142 70 276 0.0 0.0 0.00 0.00 0.00 93 1011.1
20260905083644 70 276 0.0 0.0 0.00 0.00 0.00 93 1011.1
20260905083141 70 276 0.0 0.0 0.00 0.00 0.00 93 1011.1
20260905082639 70 276 0.0 0.0 0.00 0.00 0.00 93 1011.2
20260905082138 70 276 0.0 0.0 0.00 0.00 0.00 93 1011.2
20260905081638 70 276 0.0 0.0 0.00 0.00 0.00 93 1011.4
20260905081139 70 276 0.0 0.0 0.00 0.00 0.00 93 1011.4
20260905080638 70 276 0.0 0.0 0.00 0.00 0.00 93 1011.4
20260905080138 70 276 0.0 0.0 0.00 0.00 0.00 94 1011.5
20260905075638 70 276 0.0 0.0 0.00 0.00 0.00 93 1011.4
20260905075141 70 276 0.0 0.0 0.00 0.00 0.00 93 1011.3
20260905074639 70 276 0.0 0.0 0.00 0.00 0.00 93 1011.4
20260905074138 70 276 0.0 0.0 0.00 0.00 0.00 93 1011.4
20260905073639 71 276 0.0 0.0 0.00 0.00 0.00 93 1011.4
20260905073138 71 276 0.0 0.0 0.00 0.00 0.00 93 1011.3
20260905072640 71 276 0.0 0.0 0.00 0.00 0.00 93 1011.4
20260905072141 71 276 0.0 0.0 0.00 0.00 0.00 93 1011.4
20260905071641 71 276 0.0 0.0 0.00 0.00 0.00 93 1011.5
20260905071141 71 276 0.0 0.0 0.00 0.00 0.00 93 1011.6
20260905070643 71 276 0.0 1.0 0.00 0.00 0.00 93 1011.6
20260905070142 71 276 0.0 1.0 0.00 0.00 0.00 93 1011.7
20260905065641 71 276 0.0 0.0 0.00 0.00 0.00 93 1011.8
20260905065142 71 276 0.0 0.0 0.00 0.00 0.00 93 1011.8
20260905064642 71 276 0.0 0.0 0.00 0.00 0.00 93 1011.9
20260905064142 71 276 0.0 0.0 0.00 0.00 0.00 93 1012.0
20260905063642 71 276 0.0 0.0 0.00 0.00 0.00 93 1012.1
20260905063141 71 276 0.0 0.0 0.00 0.00 0.00 93 1012.3
20260905062642 71 276 0.0 0.0 0.00 0.00 0.00 93 1012.4
20260905062141 71 276 0.0 0.0 0.00 0.00 0.00 94 1012.4
20260905061642 71 276 0.0 0.0 0.00 0.00 0.00 93 1012.4
20260905061143 71 276 0.0 0.0 0.00 0.00 0.00 93 1012.5
20260905060642 71 276 0.0 0.0 0.00 0.00 0.00 93 1012.4
20260905060141 71 276 0.0 0.0 0.00 0.00 0.00 93 1012.3
20260905055641 72 276 0.0 0.0 0.00 0.00 0.00 93 1012.4
20260905055142 72 276 0.0 0.0 0.00 0.00 0.00 93 1012.4
20260905054641 72 276 0.0 0.0 0.00 0.00 0.00 93 1012.5
20260905054142 72 276 0.0 0.0 0.00 0.00 0.00 93 1012.5
20260905053642 72 276 0.0 0.0 0.00 0.00 0.00 93 1012.6
20260905053141 72 276 0.0 0.0 0.00 0.00 0.00 93 1012.7
20260905052638 72 276 0.0 0.0 0.00 0.00 0.00 93 1012.6
20260905052139 72 276 0.0 0.0 0.00 0.00 0.00 93 1012.7
20260905051638 72 276 0.0 0.0 0.00 0.00 0.00 93 1012.7
20260905051140 72 276 0.0 0.0 0.00 0.00 0.00 93 1012.8
20260905050640 72 276 0.0 0.0 0.00 0.00 0.00 93 1012.8
20260905050140 72 276 0.0 0.0 0.00 0.00 0.00 93 1012.8
20260905045638 72 276 0.0 0.0 0.00 0.00 0.00 93 1012.9
20260905045140 72 276 0.0 0.0 0.00 0.00 0.00 93 1012.8
20260905044638 72 276 0.0 0.0 0.00 0.00 0.00 93 1012.9
20260905044138 73 276 0.0 0.0 0.00 0.00 0.00 93 1012.8
20260905043638 73 276 0.0 0.0 0.00 0.00 0.00 93 1012.9
20260905043138 73 276 0.0 0.0 0.00 0.00 0.00 93 1012.8
20260905042639 73 276 0.0 0.0 0.00 0.01 0.00 93 1012.9
20260905042139 73 276 0.0 0.0 0.00 0.01 0.00 93 1012.9
20260905041639 73 276 0.0 0.0 0.00 0.01 0.00 93 1012.8
20260905041140 73 276 0.0 0.0 0.00 0.02 0.00 93 1012.9
20260905040639 73 276 0.0 0.0 0.00 0.03 0.00 93 1013.0
20260905040139 73 276 0.0 0.0 0.00 0.04 0.00 93 1013.0
20260905035638 73 276 0.0 0.0 0.00 0.04 0.00 93 1012.9
20260905035139 73 276 0.0 0.0 0.00 0.04 0.04 93 1012.9
20260905034638 73 276 0.0 0.0 0.00 0.04 0.04 93 1012.9
20260905034138 73 276 0.0 0.0 0.00 0.04 0.04 93 1013.0
20260905033641 73 276 0.0 0.0 0.00 0.04 0.04 93 1013.0
20260905033139 73 276 0.0 0.0 0.00 0.04 0.04 93 1013.0
20260905032640 74 276 0.0 0.0 0.00 0.04 0.04 93 1013.0
20260905032142 74 276 0.0 0.0 0.00 0.04 0.04 93 1013.1
20260905031642 74 276 0.0 0.0 0.00 0.04 0.04 93 1013.1
20260905031142 74 276 0.0 0.0 0.00 0.04 0.04 93 1013.1
20260905030642 74 276 0.0 0.0 0.00 0.04 0.04 93 1013.1
20260905030143 74 276 0.0 0.0 0.00 0.05 0.04 93 1013.0
20260905025641 74 276 0.0 0.0 0.00 0.06 0.04 92 1013.0
20260905025142 74 276 0.0 0.0 0.00 0.06 0.04 92 1013.0
20260905024641 74 276 0.0 0.0 0.00 0.06 0.04 93 1013.0
20260905024142 74 276 0.0 0.0 0.00 0.06 0.04 92 1012.9
20260905023642 74 276 0.0 0.0 0.00 0.06 0.04 92 1012.9
20260905023141 74 276 0.0 0.0 0.00 0.06 0.04 92 1012.8
20260905022642 74 276 0.0 0.0 0.00 0.06 0.04 92 1012.8
20260905022143 74 276 0.0 0.0 0.00 0.06 0.04 92 1012.7
20260905021642 74 276 0.0 0.0 0.00 0.06 0.04 92 1012.8
20260905021141 75 276 0.0 0.0 0.00 0.06 0.04 92 1012.7
20260905020642 75 276 0.0 0.0 0.00 0.06 0.04 92 1012.8
20260905020142 75 276 0.0 0.0 0.00 0.06 0.04 92 1012.8
20260905015642 75 276 0.0 0.0 0.00 0.06 0.04 92 1012.7
20260905015144 75 276 0.0 0.0 0.00 0.06 0.04 91 1012.7
20260905014642 75 276 0.0 0.0 0.00 0.06 0.04 91 1012.6
20260905014141 75 276 0.0 0.0 0.00 0.06 0.04 91 1012.5
20260905013641 75 276 0.0 0.0 0.00 0.06 0.04 91 1012.5
20260905013141 75 276 0.0 0.0 0.00 0.06 0.04 91 1012.4
20260905012639 76 276 0.0 0.0 0.00 0.06 0.04 91 1012.3
20260905012138 76 276 0.0 0.0 0.00 0.06 0.04 91 1012.3
20260905011638 76 276 0.0 0.0 0.00 0.06 0.04 91 1012.1
20260905011138 76 276 0.0 0.0 0.00 0.06 0.04 91 1012.1
20260905010639 76 276 0.0 0.0 0.00 0.06 0.04 91 1012.1
20260905010138 76 276 0.0 0.0 0.00 0.06 0.04 91 1012.1
20260905005639 76 276 0.0 0.0 0.00 0.06 0.04 91 1012.2
20260905005138 76 276 0.0 0.0 0.00 0.06 0.04 91 1012.0
20260905004638 76 276 0.0 0.0 0.00 0.06 0.04 91 1012.2
20260905004139 76 276 0.0 0.0 0.00 0.06 0.04 91 1012.2
20260905003639 76 276 0.0 0.0 0.00 0.06 0.04 91 1012.3
20260905003139 76 276 0.0 0.0 0.00 0.06 0.04 91 1012.3
20260905002636 77 276 0.0 0.0 0.00 0.06 0.04 90 1012.2
20260905002136 77 276 0.0 0.0 0.00 0.06 0.04 90 1012.2
20260905001636 77 276 0.0 0.0 0.00 0.06 0.04 90 1012.1
20260905001136 77 276 0.0 0.0 0.00 0.06 0.04 90 1012.2
20260905000637 77 276 0.0 0.0 0.00 0.06 0.04 89 1012.2
20260905000135 77 276 0.0 0.0 0.00 0.06 0.04 89 1012.2
20260904235635 77 276 0.0 0.0 0.00 0.06 0.04 89 1012.0
20260904235138 77 276 0.0 0.0 0.00 0.06 0.04 89 1012.0
20260904234636 77 276 0.0 0.0 0.00 0.06 0.04 89 1012.0
20260904234136 78 276 0.0 0.0 0.00 0.06 0.04 89 1012.1
20260904233635 78 276 0.0 0.0 0.00 0.06 0.04 90 1012.1
20260904233136 78 276 0.0 0.0 0.00 0.06 0.04 90 1012.3
20260904232637 78 276 0.0 0.0 0.00 0.06 0.04 90 1012.4
20260904232141 78 276 0.0 0.0 0.00 0.06 0.04 88 1012.4
20260904231643 78 276 0.0 0.0 0.00 0.06 0.04 88 1012.4
20260904231142 79 276 0.0 0.0 0.00 0.06 0.04 88 1012.3
20260904230642 79 276 0.0 0.0 0.00 0.06 0.04 88 1012.4
20260904230141 79 276 0.0 0.0 0.00 0.06 0.04 88 1012.4
20260904225644 79 276 0.0 0.0 0.00 0.06 0.04 88 1012.4
20260904225142 79 276 0.0 0.0 0.00 0.06 0.04 87 1012.2
20260904224642 79 276 0.0 0.0 0.00 0.06 0.04 87 1012.1
20260904224142 80 276 0.0 0.0 0.00 0.06 0.04 88 1012.2
20260904223642 80 276 0.0 0.0 0.00 0.06 0.04 88 1012.3
20260904223142 80 276 0.0 0.0 0.00 0.06 0.04 87 1012.3
20260904222642 80 276 0.0 0.0 0.00 0.06 0.04 86 1012.4
20260904222143 80 276 0.0 0.0 0.00 0.06 0.04 86 1012.4
20260904221642 80 276 0.0 0.0 0.00 0.06 0.04 86 1012.5
20260904221143 80 276 0.0 0.0 0.00 0.06 0.04 86 1012.6
20260904220642 80 276 0.0 0.0 0.00 0.06 0.04 86 1012.6
20260904220142 80 276 0.0 0.0 0.00 0.06 0.04 85 1012.5
20260904215641 80 276 0.0 0.0 0.00 0.06 0.04 85 1012.6
20260904215141 80 276 0.0 0.0 0.00 0.06 0.04 85 1012.7
20260904214642 80 276 0.0 0.0 0.00 0.06 0.04 86 1012.7
20260904214141 80 276 0.0 0.0 0.00 0.06 0.04 85 1012.7
20260904213643 80 276 0.0 0.0 0.00 0.06 0.04 85 1012.8
20260904213142 80 276 0.0 0.0 0.00 0.06 0.04 85 1012.9
20260904212643 80 276 0.0 0.0 0.00 0.06 0.04 85 1012.9
20260904212504 80 276 0.0 0.0 0.00 0.06 0.04 85 1012.9
20260904212138 80 276 0.0 0.0 0.00 0.06 0.04 84 1013.0
20260904211639 80 276 0.0 0.0 0.00 0.06 0.04 84 1013.0
20260904211139 80 276 0.0 0.0 0.00 0.06 0.04 84 1013.0
20260904210640 80 276 0.0 0.0 0.00 0.06 0.04 83 1012.9
20260904210138 80 276 0.0 0.0 0.00 0.06 0.04 81 1013.1
20260904205640 80 276 0.0 0.0 0.00 0.06 0.04 80 1013.2
20260904205139 80 276 0.0 0.0 0.00 0.06 0.04 79 1013.4
20260904204638 81 276 0.0 0.0 0.00 0.06 0.04 79 1013.3
20260904204139 81 276 0.0 0.0 0.00 0.06 0.04 78 1013.3
20260904203639 81 276 0.0 0.0 0.00 0.06 0.04 78 1013.4
20260904203138 81 276 0.0 0.0 0.00 0.06 0.04 77 1013.5
20260904202639 82 276 0.0 0.0 0.00 0.06 0.04 77 1013.3
20260904202141 82 276 0.0 0.0 0.00 0.06 0.04 78 1013.4
20260904201640 82 276 0.0 0.0 0.00 0.06 0.04 76 1013.4
20260904201139 83 276 0.0 0.0 0.00 0.06 0.04 76 1013.5
20260904200639 83 276 0.0 0.0 0.00 0.06 0.04 75 1013.5
20260904200140 84 276 0.0 1.0 0.00 0.06 0.04 74 1013.6
20260904195639 84 276 0.0 1.0 0.00 0.06 0.04 74 1013.4
20260904195139 84 276 0.0 1.0 0.00 0.06 0.04 75 1013.4
20260904194639 84 276 0.0 1.0 0.00 0.06 0.04 74 1013.4
20260904194138 84 276 0.0 3.0 0.00 0.06 0.04 74 1013.5
20260904193639 84 276 0.0 3.0 0.00 0.06 0.04 73 1013.3
20260904193141 84 272 0.0 0.0 0.00 0.06 0.04 74 1013.0
20260904192641 85 36 0.0 1.0 0.00 0.06 0.04 72 1013.2
20260904192142 85 36 0.0 1.0 0.00 0.06 0.04 75 1013.4
20260904191642 85 32 0.0 0.0 0.00 0.06 0.04 72 1013.3
20260904191143 85 32 0.0 0.0 0.00 0.06 0.04 71 1013.4
20260904190645 85 16 0.0 1.0 0.00 0.06 0.04 71 1013.6
20260904190142 85 16 0.0 1.0 0.00 0.06 0.04 74 1013.7